Location: Cartignies
(50.0929°N, 3.8447°E)
Time: 14:07:10
(UTC+00:00)

Cosmos 1953 - Pass Details

Date: 12 January 2026
Orbit: 474 x 489 km, 82.5° (Epoch: 15 February)

Event Time Altitude Azimuth Distance (km) Brightness Sun altitude
Rises 17:12:16 0° 357° (N) 2,587 5.6 -10.2°
Reaches altitude 10° 17:14:33 10° 8° (N) 1,701 4.5 -10.5°
Maximum altitude 17:17:56 32° 73° (ENE) 871 2.8 -11.0°
Drops below altitude 10° 17:21:17 10° 138° (SE) 1,689 4.6 -11.5°
Sets 17:23:33 0° 148° (SSE) 2,566 5.6 -11.8°
